sat.trackr.live / text

‹ back to catalog

LAOSAT 1

NORAD 41034 · 2015-067A

PAYLOAD ACTIVE UNKNOWN

§ Identity

Operator
Country
LAOS
Launch date
2015-11-20
Launch site
XICLF
Launch vehicle
Mass (kg)
RCS (m²)
56.74

Purposes: comms

External: N2YO · Heavens-Above · Gunter

§ Orbital elements

Epoch: 2026-05-24T23:13:15.746304Z

Period
1,436.05 min
Inclination
0.0142°
Eccentricity
0.0002532
Mean motion
1.00274760 rev/d
Perigee alt
35,775.1 km
Apogee alt
35,796.4 km
Semi-major
42,163.9 km
B*
0.0000e+0
RAAN
127.3843°
Arg perigee
253.8250°
Mean anomaly
338.1719°
Rev number
3,862

§ Raw data

LAOSAT 11 41034U 15067A   26144.96754336 -.00000345  00000+0  00000+0 0  99922 41034   0.0142 127.3843 0002532 253.8250 338.1719  1.00274760 38624

JSON: /api/v1/satellites/41034 · /tle

For live sub-satellite position, see the globe view (requires WebGL).

§ Visibility from observer

Set your observer location to see the next 7 days of passes ≥ 10°. The values pass through the URL so the page stays shareable.

No JS? Fill the form by hand. The geolocation button needs JavaScript.